Grizu-263a
1 51025U 22002AT 22244.62986094 .00011214 00000-0 54858-3 0 9999
2 51025 97.4916 311.5026 0013425 154.2200 205.9706 15.18294828 34990
NO-116
1 51031U 22002AZ 22244.45744535 .00008554 00000-0 43560-3 0 9990
2 51031 97.4873 310.9823 0013626 154.9587 205.2310 15.16961730 34956
IRIS-A
1 51044U 22002BN 22244.81962102 .00002366 00000-0 13405-3 0 9996
2 51044 97.4761 310.3230 0009956 152.6594 207.5164 15.13937825 34964
DELFI-PQ
1 51074U 22002CU 22244.43604342 .00006691 00000-0 32623-3 0 9994
2 51074 97.5000 311.8538 0013568 183.6270 176.4868 15.18573548 34980
SO-115
1 51080U 22002DA 22244.12675806 .00005020 00000-0 25368-3 0 9993
2 51080 97.5014 311.3870 0013363 185.0615 175.0485 15.17448480 34927
SO-114
1 51081U 22002DB 22244.45686907 .00006869 00000-0 34565-3 0 9995
2 51081 97.5005 311.6884 0013724 183.7605 176.3527 15.17458873 34974
OreSat0
1 52017U 22026K 22244.42758535 .00006048 00000-0 31731-3 0 9996
2 52017 97.5057 243.3417 0027165 15.5783 344.6280 15.15796841 25690
Planetum 1
1 52738U 22057G 22244.54567979 .00004799 00000-0 27898-3 0 9993
2 52738 97.5182 358.0017 0006895 268.7955 91.2486 15.12537618 14939
Foresail-1
1 52766U 22057AL 22244.82014194 .00002270 00000-0 12946-3 0 9991
2 52766 97.5284 358.5954 0012258 247.3586 264.8226 15.13734442 14981
SNUGLITE 2
1 52899U 22065F 22244.86485011 .00000273 00000-0 68516-4 0 9997
2 52899 98.0288 33.6428 0008960 44.6146 315.5784 14.58397368 8830
CTIM
1 52950U 22074G 22244.41973870 .00007080 00000-0 29391-3 0 9991
2 52950 45.0145 145.8327 0002953 234.6670 125.3944 15.24509274 9320
MTCube 2
1 53106U 22080B 22241.84455576 -.00000003 00000-0 00000-0 0 9996
2 53106 70.1491 60.9382 0008126 247.0504 112.9321 6.42558378 3039
AstroBioCubeSat
1 53107U 22080C 22243.59069702 -.00000003 00000-0 00000-0 0 9993
2 53107 70.1434 60.3703 0013836 238.7815 121.1557 6.42110795 3056
GREENCUBE
1 53109U 22080E 22244.79974173 -.00000003 00000-0 00000 0 0 9994
2 53109 70.1407 59.7135 0009420 233.1134 126.8663 6.42584037 3117
CELESTA
1 53111U 22080G 22209.16019017 -.00000003 00000-0 00000-0 0 9997
2 53111 70.1517 72.3224 0015664 220.2144 139.7964 6.42532870 816
RS4S
1 53306U 98067TR 22244.80621049 .00029004 00000-0 46591-3 0 9994
2 53306 51.6417 316.6047 0000915 175.7674 184.3324 15.52780726 6556
RS3S
1 53308U 98067TT 22244.67689233 .00034337 00000-0 55015-3 0 9996
2 53308 51.6416 317.2415 0000899 144.8207 215.2842 15.52764482 6597
RS1S
1 53309U 98067TU 22244.67567520 .00032957 00000-0 52692-3 0 9995
2 53309 51.6413 317.2315 0001237 195.2696 164.8257 15.52844284 6546
RS5S
1 53310U 98067TV 22244.67648879 .00034483 00000-0 55269-3 0 9993
2 53310 51.6417 317.2394 0000954 199.7780 160.3174 15.52752291 6575
RS6S
1 53311U 98067TW 22244.80179949 .00030168 00000-0 48058-3 0 9990
2 53311 51.6412 316.5737 0000941 116.4114 243.6973 15.52991630 6616
RS9S
1 53312U 98067TX 22244.67423983 .00032132 00000-0 51300-3 0 9993
2 53312 51.6417 317.2225 0001407 202.0760 158.0169 15.52896386 6538
RS12S
1 53313U 98067TY 22244.67306316 .00031329 00000-0 49978-3 0 9999
2 53313 51.6416 317.2152 0001004 218.0764 142.0155 15.52932366 6583
